WGS 10 (USA 291)

Last updated on Jan. 29, 2020, 4:37 a.m. UTC

1 44071U 19014A   20028.74691227 -.00000249  00000-0  00000+0 0  9996
2 44071   0.0427  98.7623 0000588 202.8729 256.2388  0.99306891  3234
UTC
Height (km)
Latitude
Longitude
Inclination
Orbital Period
UTC large
Height (km)
Speed (km/s)
/
Latitude / Longitude
Inclination (degrees)
Orbital Period (minutes)
Azimuth
Elevation
Range (km)
Doppler Factor
iOS Compass Heading
iOS Angle

Next 30 passes for location: Hong Kong

Rise time Rise Azimuth (degrees) Set time Set Azimuth (degrees) Duration Max altitude (degrees)

No matching passes for this satellites